This demonstration page uses our WeatherBlox Daily Observations layout. Learn more.

Left ArrowRight Arrow

39.01783, -85.05884

Hourly Observations for April 16, 2021

Temp ( °F °C ) Dew Point ( °F °C ) Humidity (%) Winds ( mph kmh ) Pressure ( in mb ) Visibility ( mi km ) Precip ( " mm )
12:52 am 00:52 Clear 41 5 32 0 70 70 WNW 3 6 29.99 1016 10 16.0934 0 0
1:52 am 01:52 Clear 39 3.9 32 0 76 76 W 3 6 29.99 1016 10 16.0934 0 0
2:52 am 02:52 Clear 39 3.9 31 -0.6 73 73 NW 5 7 29.98 1015 10 16.0934 0 0
3:52 am 03:52 Clear 37 2.8 32 0 82 82 Calm 29.97 1015 10 16.0934 0 0
4:52 am 04:52 Partly Cloudy 35 1.7 31 -0.6 85 85 W 5 7 29.97 1015 10 16.0934 0 0
5:52 am 05:52 Partly Cloudy 34 1.1 31 -0.6 89 89 Calm 29.97 1015 10 16.0934 0 0
6:52 am 06:52 Clear 34 1.1 31 -0.6 89 89 WSW 3 6 29.97 1015 8 12.87472 0 0
7:12 am 07:12 Sunny with Mist and Fog 33 0.6 30 -1.1 89 89 Calm 30.01 1016 1.75 2.816345 0 0
7:15 am 07:15 Sunny 33 0.6 31 -0.6 92 92 Calm 30.01 1016 7 11.26538 0 0
7:52 am 07:52 Mostly Sunny 35 1.7 32 0 89 89 Calm 29.98 1015 8 12.87472 0 0
8:52 am 08:52 Mostly Sunny 43 6.1 35 1.7 74 74 WSW 3 6 29.98 1015 10 16.0934 0 0
9:52 am 09:52 Mostly Sunny 49 9.4 34 1.1 56 56 NNW 7 11 29.98 1015 10 16.0934 0 0
10:52 am 10:52 Partly Cloudy 51 10.6 34 1.1 52 52 NW 7 11 29.98 1015 10 16.0934 0 0
11:52 am 11:52 Mostly Cloudy 53 11.7 35 1.7 51 51 VRB 6 9 29.98 1015 10 16.0934 0 0
12:52 pm 12:52 Mostly Cloudy 56 13.3 36 2.2 47 47 NW 9 15 29.96 1014 10 16.0934 0 0
1:52 pm 13:52 Mostly Cloudy 57 13.9 36 2.2 45 45 Calm 29.93 1014 10 16.0934 0 0
2:52 pm 14:52 Mostly Cloudy 58 14.4 36 2.2 44 44 WNW 9 15 29.91 1013 10 16.0934 0 0
3:52 pm 15:52 Partly Cloudy 60 15.6 36 2.2 41 41 W 8 13 29.89 1012 10 16.0934 0 0
4:52 pm 16:52 Mostly Sunny 61 16.1 37 2.8 41 41 VRB 6 9 29.88 1012 10 16.0934 0 0
5:52 pm 17:52 Mostly Sunny 61 16.1 35 1.7 38 38 NW 9 15 29.89 1012 10 16.0934 0 0
6:52 pm 18:52 Mostly Sunny 59 15 35 1.7 41 41 W 8 13 29.89 1012 10 16.0934 0 0
7:52 pm 19:52 Mostly Sunny 55 12.8 36 2.2 49 49 W 7 11 29.89 1012 10 16.0934 0 0
8:52 pm 20:52 Mostly Clear 54 12.2 34 1.1 47 47 W 5 7 29.9 1012 10 16.0934 0 0
9:52 pm 21:52 Clear 50 10 35 1.7 57 57 W 5 7 29.9 1013 10 16.0934 0 0
10:52 pm 22:52 Clear 49 9.4 35 1.7 59 59 W 6 9 29.91 1013 10 16.0934 0 0
11:52 pm 23:52 Clear 47 8.3 36 2.2 66 66 Calm 29.89 1012 10 16.0934 0 0

Powered by AerisWeather